[[{"header":{"parameterUnit":"m.s-1","parameterCategory":1,"la1":30.2992,"la2":30.254,"lo1":-89.0895,"lo2":-89.0443,"dy":0.0025,"dx":0.0025,"nx":19,"ny":19,"refTime":"2026-04-12T21:00:00:Z","depth":0,"parameterNumber":2,"parameterNumberName":"U-component_of_WINDS"},"data":[0,0,0,-2.5159,-2.5157,-2.5093,-2.5093,-2.5022,-2.5022,0,0,0,0,0,0,0,0,0,0,0,-2.5186,-2.5186,-2.5159,-2.5157,-2.5093,-2.5093,-2.5022,-2.5022,0,0,0,0,0,0,0,0,0,0,0,-2.5186,-2.5186,-2.5186,-2.5157,-2.5093,-2.5093,-2.5022,-2.5066,0,0,0,0,0,0,0,0,0,0,-2.5126,-2.5161,-2.5186,-2.5186,-2.5157,-2.5093,-2.5093,-2.5068,-2.5063,-2.5057,0,-2.5055,0,-2.5038,-2.5018,-2.5018,0,0,0,-2.515,-2.5165,-2.514,-2.5186,-2.5156,-2.5094,-2.512,-2.5065,-2.506,-2.5051,-2.5054,-2.5051,-2.5036,-2.5017,-2.5017,-2.501,-2.501,0,0,-2.5153,-2.5179,-2.5144,-2.5137,-2.515,-2.5122,-2.5118,-2.5062,-2.5066,-2.5054,-2.5049,-2.5035,-2.5017,-2.5017,-2.5009,-2.501,0,0,0,-2.5169,-2.5182,-2.5158,-2.5141,-2.5128,-2.512,-2.5116,-2.5069,-2.5059,-2.5048,-2.5034,-2.5017,-2.5016,-2.5009,-2.5009,-2.5051,0,0,0,-2.517,-2.5191,-2.516,-2.5175,-2.513,-2.5098,-2.5124,-2.5063,-2.5056,-2.5035,-2.5017,-2.5015,-2.5009,-2.5009,-2.5049,-2.5065,0,0,0,-2.5187,-2.5192,-2.5187,-2.5176,-2.515,-2.5098,-2.5085,-2.5061,-2.5048,-2.5018,-2.5015,-2.5008,-2.5009,-2.5047,-2.5062,-2.5071,0,0,0,-2.5212,-2.5222,-2.5188,-2.5193,-2.5151,-2.5126,-2.5085,-2.5065,-2.5044,-2.5016,-2.5009,-2.5009,-2.5046,-2.506,-2.5069,-2.5082,-2.509,0,0,-2.5239,-2.5226,-2.5228,-2.5195,-2.5183,-2.5133,-2.5126,-2.5081,-2.5054,-2.5025,-2.5025,-2.5049,-2.5062,-2.507,-2.5129,-2.5136,0,0,0,-2.5245,-2.5246,-2.5237,-2.522,-2.5189,-2.5162,-2.5117,-2.51,-2.5076,-2.5045,-2.5054,-2.5061,-2.5065,-2.507,-2.5075,-2.5077,-2.5013,-2.5013,-2.5013,-2.5317,-2.5284,-2.5284,-2.5244,-2.5228,-2.5183,-2.5166,-2.5136,-2.5105,-2.5108,-2.5098,-2.5139,-2.5146,-2.515,-2.5152,-2.5104,-2.5104,-2.5104,-2.5104,-2.5352,-2.5348,-2.5311,-2.5297,-2.5262,-2.5249,-2.5206,-2.5186,-2.5168,-2.5142,-2.5144,-2.5118,-2.5158,-2.5158,-2.5107,-2.5106,-2.5106,-2.5106,-2.5105,-2.5395,-2.5387,-2.537,-2.5343,-2.5326,-2.5284,-2.527,-2.5238,-2.5207,-2.5209,-2.5196,-2.5195,-2.519,-2.5206,-2.5206,-2.5206,-2.5206,-2.5206,-2.5206,-2.5446,-2.5425,-2.5418,-2.5387,-2.5373,-2.535,-2.5306,-2.529,-2.5264,-2.5242,-2.5241,-2.521,-2.5169,-2.5159,-2.5208,-2.5208,-2.5208,-2.5207,-2.5207,-2.5492,-2.5477,-2.5466,-2.5453,-2.5414,-2.54,-2.536,-2.5332,-2.5314,-2.5308,-2.5277,-2.5253,-2.5236,-2.5231,-2.5223,-2.5285,-2.5285,-2.5285,-2.5285,-2.5527,-2.5517,-2.55,-2.548,-2.5457,-2.5421,-2.5409,-2.5375,-2.5337,-2.5324,-2.5311,-2.5297,-2.5294,-2.5279,-2.5273,-2.5264,-2.5336,-2.5336,-2.5336,-2.5554,-2.554,-2.5537,-2.5502,-2.5471,-2.5444,-2.5432,-2.5409,-2.5363,-2.5338,-2.5313,-2.5311,-2.5288,-2.5283,-2.5255,-2.5247,-2.523,0,0]},{"header":{"parameterUnit":"m.s-1","parameterCategory":1,"la1":30.2992,"la2":30.254,"lo1":-89.0895,"lo2":-89.0443,"dy":0.0025,"dx":0.0025,"nx":19,"ny":19,"refTime":"2026-04-12T21:00:00:Z","depth":0,"parameterNumber":3,"parameterNumberName":"V-component_of_WINDS"},"data":[0,0,0,4.2185,4.2185,4.2159,4.2159,4.2128,4.2127,0,0,0,0,0,0,0,0,0,0,0,4.2194,4.2194,4.2185,4.2185,4.2159,4.2159,4.2128,4.2127,0,0,0,0,0,0,0,0,0,0,0,4.2195,4.2194,4.2194,4.2184,4.2159,4.2159,4.2128,4.2146,0,0,0,0,0,0,0,0,0,0,4.2171,4.2181,4.2194,4.2194,4.2184,4.2159,4.2159,4.2147,4.2145,4.214,0,4.2137,0,4.2132,4.2126,4.2125,0,0,0,4.2183,4.2183,4.2175,4.2194,4.2184,4.2159,4.217,4.2146,4.2144,4.2138,4.2137,4.2136,4.2132,4.2125,4.2125,4.2108,4.2108,0,0,4.2184,4.219,4.2176,4.2174,4.2179,4.2171,4.2169,4.2145,4.2144,4.2137,4.2135,4.2131,4.2125,4.2125,4.2108,4.2108,0,0,0,4.2189,4.2191,4.2184,4.2175,4.217,4.217,4.2168,4.2145,4.2142,4.2135,4.2131,4.2125,4.2125,4.2108,4.2108,4.2115,0,0,0,4.219,4.2195,4.2184,4.2188,4.2171,4.2157,4.2169,4.2144,4.2141,4.2131,4.2125,4.2124,4.2108,4.2108,4.2115,4.2117,0,0,0,4.2195,4.2195,4.2192,4.2188,4.2178,4.2158,4.2153,4.2143,4.2138,4.2125,4.2124,4.2108,4.2108,4.2115,4.2117,4.2115,0,0,0,4.2202,4.2198,4.2193,4.2186,4.2178,4.2163,4.2153,4.2141,4.2131,4.2125,4.2108,4.2108,4.2115,4.2116,4.2115,4.2115,4.2116,0,0,4.22,4.2197,4.2193,4.2188,4.2175,4.2166,4.2154,4.2138,4.213,4.2115,4.2115,4.2115,4.2117,4.2115,4.2118,4.2118,0,0,0,4.2194,4.2191,4.2187,4.2178,4.2167,4.2158,4.2143,4.2138,4.2125,4.2124,4.2114,4.2114,4.2113,4.2113,4.2114,4.2113,4.2108,4.2108,4.2108,4.2199,4.2191,4.2183,4.2173,4.2165,4.2151,4.2144,4.2134,4.2126,4.2124,4.212,4.2122,4.2122,4.2123,4.2122,4.2119,4.2119,4.2119,4.2119,4.2194,4.2189,4.2182,4.2172,4.2164,4.2155,4.2142,4.2138,4.2128,4.2125,4.2123,4.212,4.2124,4.2123,4.212,4.212,4.2119,4.2119,4.2119,4.2196,4.2193,4.2187,4.2176,4.2168,4.2157,4.215,4.2142,4.2134,4.2133,4.2128,4.2128,4.2127,4.2131,4.2131,4.2131,4.2131,4.2131,4.2131,4.22,4.2194,4.2189,4.2179,4.2174,4.2166,4.2154,4.2148,4.214,4.2134,4.2134,4.2128,4.2126,4.2126,4.2131,4.2131,4.2131,4.2131,4.2131,4.2199,4.2199,4.2191,4.2186,4.2174,4.2168,4.2159,4.2148,4.2142,4.2139,4.2134,4.2133,4.213,4.2129,4.2129,4.2135,4.2135,4.2135,4.2135,4.2201,4.2199,4.219,4.2183,4.2175,4.2167,4.2159,4.215,4.214,4.2137,4.2135,4.2134,4.2134,4.213,4.213,4.2129,4.2135,4.2135,4.2135,4.2199,4.2197,4.2192,4.2184,4.2175,4.2167,4.2159,4.2151,4.214,4.2135,4.2134,4.2133,4.2132,4.2132,4.2126,4.2125,4.2125,0,0]}]]